Time,TemperatureF,DewpointF,PressureIn,WindDirection,WindDirectionDegrees,WindSpeedMPH,WindSpeedGustMPH,Humidity,HourlyPrecipIn,Conditions,Clouds,dailyrainin,SoftwareType,DateUTC
2013-01-19 00:02:00,37.1,30.9,29.72,SW,225,10.1,10.7,78,0.00,,,0.00,WUHU216HW,2013-01-19 06:02:00,
2013-01-19 00:07:00,37.1,30.9,29.72,WSW,248,7.8,10.7,78,0.00,,,0.00,WUHU216HW,2013-01-19 06:07:00,
2013-01-19 00:12:00,36.9,30.7,29.72,WSW,248,8.5,10.7,78,0.00,,,0.00,WUHU216HW,2013-01-19 06:12:00,
2013-01-19 00:17:00,36.7,30.5,29.72,SW,225,8.1,10.1,78,0.00,,,0.00,WUHU216HW,2013-01-19 06:17:00,
2013-01-19 00:22:00,36.5,30.3,29.73,WSW,248,5.4,10.1,78,0.00,,,0.00,WUHU216HW,2013-01-19 06:22:00,
2013-01-19 00:27:00,36.5,30.3,29.72,WSW,248,6.9,8.9,78,0.00,,,0.00,WUHU216HW,2013-01-19 06:27:00,
2013-01-19 00:32:00,36.4,30.2,29.72,WSW,248,7.2,8.9,78,0.00,,,0.00,WUHU216HW,2013-01-19 06:32:00,
2013-01-19 00:37:00,36.2,30.0,29.72,WSW,248,6.9,8.5,78,0.00,,,0.00,WUHU216HW,2013-01-19 06:37:00,
2013-01-19 00:42:00,36.0,30.1,29.72,WSW,248,8.1,8.7,79,0.00,,,0.00,WUHU216HW,2013-01-19 06:42:00,
2013-01-19 00:47:00,36.0,30.1,29.72,WSW,248,7.8,8.7,79,0.00,,,0.00,WUHU216HW,2013-01-19 06:47:00,
2013-01-19 00:52:00,35.8,29.9,29.72,WSW,248,7.6,7.8,79,0.00,,,0.00,WUHU216HW,2013-01-19 06:52:00,
2013-01-19 00:57:00,35.8,30.2,29.72,WSW,248,7.8,7.8,80,0.00,,,0.00,WUHU216HW,2013-01-19 06:57:00,
2013-01-19 01:02:00,35.8,30.2,29.72,SW,225,6.9,7.8,80,0.00,,,0.00,WUHU216HW,2013-01-19 07:02:00,
2013-01-19 01:07:00,35.8,30.2,29.72,WSW,248,6.3,7.8,80,0.00,,,0.00,WUHU216HW,2013-01-19 07:07:00,
2013-01-19 01:12:00,35.8,30.2,29.72,WSW,248,5.4,7.8,80,0.00,,,0.00,WUHU216HW,2013-01-19 07:12:00,
2013-01-19 01:17:00,35.6,30.1,29.72,SSW,203,5.6,7.4,80,0.00,,,0.00,WUHU216HW,2013-01-19 07:17:00,
2013-01-19 01:22:00,35.8,30.2,29.72,SW,225,6.5,6.9,80,0.00,,,0.00,WUHU216HW,2013-01-19 07:22:00,
2013-01-19 01:27:00,35.8,30.2,29.72,SW,225,7.2,8.1,80,0.00,,,0.00,WUHU216HW,2013-01-19 07:27:00,
2013-01-19 01:32:00,35.8,30.2,29.73,SW,225,5.6,8.1,80,0.00,,,0.00,WUHU216HW,2013-01-19 07:32:00,
2013-01-19 01:37:00,35.8,30.2,29.73,SW,225,6.7,7.6,80,0.00,,,0.00,WUHU216HW,2013-01-19 07:37:00,
2013-01-19 01:43:00,35.8,30.2,29.73,SW,225,6.9,7.6,80,0.00,,,0.00,WUHU216HW,2013-01-19 07:43:00,
2013-01-19 01:48:00,35.8,30.2,29.73,SW,225,6.5,8.1,80,0.00,,,0.00,WUHU216HW,2013-01-19 07:48:00,
2013-01-19 01:52:00,35.8,30.2,29.73,SW,225,6.5,8.1,80,0.00,,,0.00,WUHU216HW,2013-01-19 07:52:00,
2013-01-19 01:57:00,35.8,30.2,29.73,SW,225,6.3,7.4,80,0.00,,,0.00,WUHU216HW,2013-01-19 07:57:00,
2013-01-19 02:02:00,35.8,30.2,29.73,SW,225,5.4,8.5,80,0.00,,,0.00,WUHU216HW,2013-01-19 08:02:00,
2013-01-19 02:07:00,36.0,30.4,29.74,SW,225,6.0,8.5,80,0.00,,,0.00,WUHU216HW,2013-01-19 08:07:00,
2013-01-19 02:12:00,36.0,30.4,29.74,SW,225,5.4,8.5,80,0.00,,,0.00,WUHU216HW,2013-01-19 08:12:00,
2013-01-19 02:17:00,36.0,30.4,29.74,SSW,203,4.9,8.5,80,0.00,,,0.00,WUHU216HW,2013-01-19 08:17:00,
2013-01-19 02:22:00,36.0,30.4,29.74,SW,225,6.5,7.6,80,0.00,,,0.00,WUHU216HW,2013-01-19 08:22:00,
2013-01-19 02:27:00,36.0,30.4,29.74,SW,225,6.5,7.6,80,0.00,,,0.00,WUHU216HW,2013-01-19 08:27:00,
2013-01-19 02:32:00,36.0,30.4,29.74,SW,225,6.3,8.9,80,0.00,,,0.00,WUHU216HW,2013-01-19 08:32:00,
2013-01-19 02:37:00,36.0,30.4,29.73,WSW,248,9.8,9.8,80,0.00,,,0.00,WUHU216HW,2013-01-19 08:37:00,
2013-01-19 02:42:00,36.2,30.6,29.73,SW,225,6.3,10.7,80,0.00,,,0.00,WUHU216HW,2013-01-19 08:42:00,
2013-01-19 02:47:00,36.2,30.6,29.73,SW,225,6.5,10.7,80,0.00,,,0.00,WUHU216HW,2013-01-19 08:47:00,
2013-01-19 02:52:00,36.2,30.6,29.73,SW,225,9.4,9.6,80,0.00,,,0.00,WUHU216HW,2013-01-19 08:52:00,
2013-01-19 02:57:00,36.2,30.6,29.73,SSW,203,9.2,9.6,80,0.00,,,0.00,WUHU216HW,2013-01-19 08:57:00,
2013-01-19 03:02:00,36.0,30.4,29.73,SW,225,6.9,9.4,80,0.00,,,0.00,WUHU216HW,2013-01-19 09:02:00,
2013-01-19 03:07:00,36.0,30.4,29.73,SSW,203,9.2,10.1,80,0.00,,,0.00,WUHU216HW,2013-01-19 09:07:00,
2013-01-19 03:12:00,36.2,30.6,29.73,WSW,248,10.5,10.5,80,0.00,,,0.00,WUHU216HW,2013-01-19 09:12:00,
2013-01-19 03:17:00,36.2,30.6,29.73,WSW,248,7.6,10.5,80,0.00,,,0.00,WUHU216HW,2013-01-19 09:17:00,
2013-01-19 03:22:00,36.4,30.8,29.72,SSW,203,7.6,10.1,80,0.00,,,0.00,WUHU216HW,2013-01-19 09:22:00,
2013-01-19 03:27:00,36.2,30.6,29.72,WSW,248,5.6,12.8,80,0.00,,,0.00,WUHU216HW,2013-01-19 09:27:00,
2013-01-19 03:32:00,36.2,30.6,29.72,WSW,248,8.7,12.8,80,0.00,,,0.00,WUHU216HW,2013-01-19 09:32:00,
2013-01-19 03:37:00,36.4,30.8,29.72,WSW,248,8.5,11.2,80,0.00,,,0.00,WUHU216HW,2013-01-19 09:37:00,
2013-01-19 03:42:00,36.4,30.8,29.72,SW,225,8.7,11.4,80,0.00,,,0.00,WUHU216HW,2013-01-19 09:42:00,
2013-01-19 03:47:00,36.4,30.8,29.72,SSW,203,7.8,11.4,80,0.00,,,0.00,WUHU216HW,2013-01-19 09:47:00,
2013-01-19 03:52:00,36.4,30.8,29.72,WSW,248,7.6,10.5,80,0.00,,,0.00,WUHU216HW,2013-01-19 09:52:00,
2013-01-19 03:57:00,36.4,30.8,29.72,SW,225,8.3,10.3,80,0.00,,,0.00,WUHU216HW,2013-01-19 09:57:00,
2013-01-19 04:02:00,36.4,30.8,29.72,WSW,248,7.4,10.3,80,0.00,,,0.00,WUHU216HW,2013-01-19 10:02:00,
2013-01-19 04:07:00,36.4,30.8,29.72,SW,225,6.5,10.3,80,0.00,,,0.00,WUHU216HW,2013-01-19 10:07:00,
2013-01-19 04:12:00,36.4,30.8,29.72,SSW,203,6.3,8.7,80,0.00,,,0.00,WUHU216HW,2013-01-19 10:12:00,
2013-01-19 04:17:00,36.4,30.8,29.72,SW,225,4.5,8.1,80,0.00,,,0.00,WUHU216HW,2013-01-19 10:17:00,
2013-01-19 04:22:00,36.2,30.6,29.72,SW,225,5.4,7.8,80,0.00,,,0.00,WUHU216HW,2013-01-19 10:22:00,
2013-01-19 04:27:00,36.2,30.6,29.72,SW,225,4.9,7.4,80,0.00,,,0.00,WUHU216HW,2013-01-19 10:27:00,
2013-01-19 04:32:00,36.0,30.4,29.72,SSW,203,3.8,5.6,80,0.00,,,0.00,WUHU216HW,2013-01-19 10:32:00,
2013-01-19 04:37:00,36.0,30.4,29.72,South,180,2.7,5.4,80,0.00,,,0.00,WUHU216HW,2013-01-19 10:37:00,
2013-01-19 04:42:00,36.0,30.7,29.71,SSW,203,2.9,4.7,81,0.00,,,0.00,WUHU216HW,2013-01-19 10:42:00,
2013-01-19 04:47:00,35.8,30.5,29.71,SSW,203,3.6,5.4,81,0.00,,,0.00,WUHU216HW,2013-01-19 10:47:00,
2013-01-19 04:52:00,35.6,30.6,29.71,SSW,203,5.4,7.4,82,0.00,,,0.00,WUHU216HW,2013-01-19 10:52:00,
2013-01-19 04:57:00,35.6,30.6,29.71,SSW,203,6.0,8.3,82,0.00,,,0.00,WUHU216HW,2013-01-19 10:57:00,
2013-01-19 05:02:00,35.8,30.8,29.70,SW,225,4.7,8.3,82,0.00,,,0.00,WUHU216HW,2013-01-19 11:02:00,
2013-01-19 05:07:00,35.8,30.8,29.71,SSW,203,7.6,7.6,82,0.00,,,0.00,WUHU216HW,2013-01-19 11:07:00,
2013-01-19 05:12:00,35.6,30.6,29.71,SW,225,6.3,7.6,82,0.00,,,0.00,WUHU216HW,2013-01-19 11:12:00,
2013-01-19 05:15:00,35.8,30.8,29.71,SSW,203,6.9,8.5,82,0.00,,,0.00,WUHU216HW,2013-01-19 11:15:00,
2013-01-19 05:21:00,35.6,30.6,29.71,SSW,203,6.3,8.5,82,0.00,,,0.00,WUHU216HW,2013-01-19 11:21:00,
2013-01-19 05:26:00,35.6,30.6,29.71,SW,225,4.7,8.5,82,0.00,,,0.00,WUHU216HW,2013-01-19 11:26:00,
2013-01-19 05:27:00,35.6,30.6,29.71,SSW,203,5.8,8.5,82,0.00,,,0.00,WUHU216HW,2013-01-19 11:27:00,
2013-01-19 05:33:00,35.6,30.6,29.70,SW,225,4.9,8.5,82,0.00,,,0.00,WUHU216HW,2013-01-19 11:33:00,
2013-01-19 05:39:00,35.6,30.6,29.71,SSW,203,6.7,8.3,82,0.00,,,0.00,WUHU216HW,2013-01-19 11:39:00,
2013-01-19 05:44:00,35.5,30.4,29.71,SW,225,6.3,8.3,82,0.00,,,0.00,WUHU216HW,2013-01-19 11:44:00,
2013-01-19 05:45:00,35.6,30.6,29.71,SSW,203,7.6,8.3,82,0.00,,,0.00,WUHU216HW,2013-01-19 11:45:00,
2013-01-19 05:50:00,35.5,30.4,29.71,SSW,203,4.9,7.6,82,0.00,,,0.00,WUHU216HW,2013-01-19 11:50:00,
2013-01-19 05:51:00,35.5,30.4,29.71,SSW,203,4.7,7.6,82,0.00,,,0.00,WUHU216HW,2013-01-19 11:51:00,
2013-01-19 05:56:00,35.5,30.4,29.71,SSW,203,4.9,6.9,82,0.00,,,0.00,WUHU216HW,2013-01-19 11:56:00,
2013-01-19 05:57:00,35.5,30.4,29.71,SSW,203,4.7,6.9,82,0.00,,,0.00,WUHU216HW,2013-01-19 11:57:00,
2013-01-19 06:02:00,35.5,30.4,29.71,SW,225,3.6,5.6,82,0.00,,,0.00,WUHU216HW,2013-01-19 12:02:00,
2013-01-19 06:03:00,35.5,30.4,29.71,SW,225,4.0,5.6,82,0.00,,,0.00,WUHU216HW,2013-01-19 12:03:00,
2013-01-19 06:08:00,35.3,30.2,29.71,South,180,4.0,5.4,82,0.00,,,0.00,WUHU216HW,2013-01-19 12:08:00,
2013-01-19 06:09:00,35.3,30.2,29.71,SSW,203,3.4,4.7,82,0.00,,,0.00,WUHU216HW,2013-01-19 12:09:00,
2013-01-19 06:14:00,35.3,30.2,29.71,SSW,203,2.0,4.3,82,0.00,,,0.00,WUHU216HW,2013-01-19 12:14:00,
2013-01-19 06:15:00,35.3,30.2,29.71,SW,225,2.5,4.3,82,0.00,,,0.00,WUHU216HW,2013-01-19 12:15:00,
2013-01-19 06:20:00,35.1,30.1,29.71,SSW,203,2.2,4.3,82,0.00,,,0.00,WUHU216HW,2013-01-19 12:20:00,
2013-01-19 06:21:00,35.1,30.1,29.71,SSW,203,2.5,4.3,82,0.00,,,0.00,WUHU216HW,2013-01-19 12:21:00,
2013-01-19 06:27:00,35.1,30.1,29.71,SSW,203,2.0,3.4,82,0.00,,,0.00,WUHU216HW,2013-01-19 12:27:00,
2013-01-19 06:32:00,35.1,30.1,29.71,SW,225,2.7,3.4,82,0.00,,,0.00,WUHU216HW,2013-01-19 12:32:00,
2013-01-19 06:33:00,35.1,30.1,29.71,SW,225,2.5,3.4,82,0.00,,,0.00,WUHU216HW,2013-01-19 12:33:00,
2013-01-19 06:47:00,34.9,30.3,29.71,SSW,203,3.8,5.6,83,0.00,,,0.00,WUHU216HW,2013-01-19 12:47:00,
2013-01-19 06:48:00,34.9,30.3,29.70,SSW,203,3.8,5.6,83,0.00,,,0.00,WUHU216HW,2013-01-19 12:48:00,
2013-01-19 06:53:00,35.1,30.4,29.71,South,180,4.0,5.6,83,0.00,,,0.00,WUHU216HW,2013-01-19 12:53:00,
2013-01-19 06:58:00,35.1,30.1,29.71,SW,225,2.5,5.4,82,0.00,,,0.00,WUHU216HW,2013-01-19 12:58:00,
2013-01-19 07:03:00,35.1,30.4,29.70,South,180,3.4,4.7,83,0.00,,,0.00,WUHU216HW,2013-01-19 13:03:00,
2013-01-19 07:08:00,35.1,30.4,29.70,SSW,203,5.8,6.7,83,0.00,,,0.00,WUHU216HW,2013-01-19 13:08:00,
2013-01-19 07:13:00,35.1,30.7,29.70,SSW,203,6.7,7.6,84,0.00,,,0.00,WUHU216HW,2013-01-19 13:13:00,
2013-01-19 07:18:00,35.1,30.7,29.69,SSW,203,7.8,9.4,84,0.00,,,0.00,WUHU216HW,2013-01-19 13:18:00,
2013-01-19 07:23:00,35.3,30.6,29.69,SSW,203,5.8,9.4,83,0.00,,,0.00,WUHU216HW,2013-01-19 13:23:00,
2013-01-19 07:28:00,35.3,30.6,29.69,SSW,203,6.0,8.5,83,0.00,,,0.00,WUHU216HW,2013-01-19 13:28:00,
2013-01-19 07:33:00,35.3,30.6,29.69,South,180,4.5,7.6,83,0.00,,,0.00,WUHU216HW,2013-01-19 13:33:00,
2013-01-19 07:38:00,35.3,30.9,29.69,SSW,203,7.6,8.3,84,0.00,,,0.00,WUHU216HW,2013-01-19 13:38:00,
2013-01-19 07:43:00,35.3,30.6,29.69,SSW,203,8.3,8.3,83,0.00,,,0.00,WUHU216HW,2013-01-19 13:43:00,
2013-01-19 07:48:00,35.5,30.8,29.69,South,180,6.3,8.3,83,0.00,,,0.00,WUHU216HW,2013-01-19 13:48:00,
2013-01-19 07:53:00,35.6,31.0,29.69,SSW,203,6.5,8.5,83,0.00,,,0.00,WUHU216HW,2013-01-19 13:53:00,
2013-01-19 07:58:00,35.6,31.0,29.69,SSW,203,6.7,8.9,83,0.00,,,0.00,WUHU216HW,2013-01-19 13:58:00,
2013-01-19 08:03:00,35.8,30.8,29.69,SSW,203,6.3,9.2,82,0.00,,,0.00,WUHU216HW,2013-01-19 14:03:00,
2013-01-19 08:08:00,35.8,30.8,29.69,SSW,203,9.2,9.6,82,0.00,,,0.00,WUHU216HW,2013-01-19 14:08:00,
2013-01-19 08:13:00,36.0,31.0,29.69,SW,225,7.2,11.2,82,0.00,,,0.00,WUHU216HW,2013-01-19 14:13:00,
2013-01-19 08:18:00,36.2,31.1,29.68,SW,225,7.6,11.2,82,0.00,,,0.00,WUHU216HW,2013-01-19 14:18:00,
2013-01-19 08:23:00,36.2,31.1,29.68,South,180,8.5,11.0,82,0.00,,,0.00,WUHU216HW,2013-01-19 14:23:00,
2013-01-19 08:28:00,36.2,31.1,29.68,SW,225,5.8,11.0,82,0.00,,,0.00,WUHU216HW,2013-01-19 14:28:00,
2013-01-19 08:33:00,36.4,31.3,29.68,WSW,248,8.5,8.5,82,0.00,,,0.00,WUHU216HW,2013-01-19 14:33:00,
2013-01-19 08:38:00,36.4,31.1,29.68,SW,225,8.5,11.0,81,0.00,,,0.00,WUHU216HW,2013-01-19 14:38:00,
2013-01-19 08:43:00,36.4,31.1,29.68,South,180,7.2,11.0,81,0.00,,,0.00,WUHU216HW,2013-01-19 14:43:00,
2013-01-19 08:48:00,36.5,31.2,29.68,South,180,7.6,9.8,81,0.00,,,0.00,WUHU216HW,2013-01-19 14:48:00,
2013-01-19 08:53:00,36.7,31.4,29.68,SSW,203,7.6,11.0,81,0.00,,,0.00,WUHU216HW,2013-01-19 14:53:00,
2013-01-19 08:58:00,36.7,31.4,29.67,SSW,203,8.9,12.1,81,0.00,,,0.00,WUHU216HW,2013-01-19 14:58:00,
2013-01-19 09:03:00,36.9,31.3,29.68,SW,225,11.4,12.1,80,0.00,,,0.00,WUHU216HW,2013-01-19 15:03:00,
2013-01-19 09:08:00,36.9,31.3,29.68,SW,225,9.2,13.0,80,0.00,,,0.00,WUHU216HW,2013-01-19 15:08:00,
2013-01-19 09:13:00,37.1,31.5,29.67,South,180,9.8,13.0,80,0.00,,,0.00,WUHU216HW,2013-01-19 15:13:00,
2013-01-19 09:18:00,37.1,31.5,29.68,South,180,6.0,12.3,80,0.00,,,0.00,WUHU216HW,2013-01-19 15:18:00,
2013-01-19 09:23:00,37.1,31.5,29.68,WSW,248,5.4,12.3,80,0.00,,,0.00,WUHU216HW,2013-01-19 15:23:00,
2013-01-19 09:28:00,37.4,31.9,29.67,SW,225,8.5,9.8,80,0.00,,,0.00,WUHU216HW,2013-01-19 15:28:00,
2013-01-19 09:33:00,37.4,31.9,29.67,WSW,248,6.9,11.9,80,0.00,,,0.00,WUHU216HW,2013-01-19 15:33:00,
2013-01-19 09:38:00,37.6,31.7,29.66,South,180,8.5,11.9,79,0.00,,,0.00,WUHU216HW,2013-01-19 15:38:00,
2013-01-19 09:43:00,37.6,31.7,29.66,SW,225,5.6,11.2,79,0.00,,,0.00,WUHU216HW,2013-01-19 15:43:00,
2013-01-19 09:48:00,37.8,31.9,29.66,WSW,248,2.9,11.2,79,0.00,,,0.00,WUHU216HW,2013-01-19 15:48:00,
2013-01-19 09:53:00,37.8,31.6,29.66,SSW,203,7.2,10.5,78,0.00,,,0.00,WUHU216HW,2013-01-19 15:53:00,
2013-01-19 09:58:00,37.8,31.6,29.65,SSE,158,7.6,11.6,78,0.00,,,0.00,WUHU216HW,2013-01-19 15:58:00,
2013-01-19 10:03:00,38.0,31.8,29.67,SW,225,13.9,14.3,78,0.00,,,0.00,WUHU216HW,2013-01-19 16:03:00,
2013-01-19 10:08:00,38.0,31.8,29.67,SW,225,9.8,15.0,78,0.00,,,0.00,WUHU216HW,2013-01-19 16:08:00,
2013-01-19 10:13:00,38.2,32.0,29.67,SW,225,6.3,15.0,78,0.00,,,0.00,WUHU216HW,2013-01-19 16:13:00,
2013-01-19 10:18:00,38.3,32.1,29.66,SSW,203,12.8,14.5,78,0.00,,,0.00,WUHU216HW,2013-01-19 16:18:00,
2013-01-19 10:23:00,38.5,32.3,29.65,WSW,248,7.8,14.5,78,0.00,,,0.00,WUHU216HW,2013-01-19 16:23:00,
2013-01-19 10:28:00,38.5,32.3,29.64,SSW,203,9.4,12.8,78,0.00,,,0.00,WUHU216HW,2013-01-19 16:28:00,
2013-01-19 10:33:00,38.5,32.3,29.64,SW,225,8.3,12.8,78,0.00,,,0.00,WUHU216HW,2013-01-19 16:33:00,
2013-01-19 10:38:00,38.7,32.1,29.65,WSW,248,8.1,12.8,77,0.00,,,0.00,WUHU216HW,2013-01-19 16:38:00,
2013-01-19 10:43:00,38.9,32.3,29.65,WSW,248,11.0,14.3,77,0.00,,,0.00,WUHU216HW,2013-01-19 16:43:00,
2013-01-19 10:47:00,39.2,32.7,29.65,WSW,248,12.1,14.3,77,0.00,,,0.00,WUHU216HW,2013-01-19 16:47:00,
2013-01-19 10:53:00,39.2,32.7,29.64,SW,225,8.9,14.3,77,0.00,,,0.00,WUHU216HW,2013-01-19 16:53:00,
2013-01-19 10:58:00,39.2,32.7,29.64,SW,225,9.4,13.4,77,0.00,,,0.00,WUHU216HW,2013-01-19 16:58:00,
2013-01-19 11:03:00,39.2,32.7,29.64,SW,225,8.5,13.4,77,0.00,,,0.00,WUHU216HW,2013-01-19 17:03:00,
2013-01-19 11:08:00,39.4,32.5,29.63,SW,225,14.3,14.3,76,0.00,,,0.00,WUHU216HW,2013-01-19 17:08:00,
2013-01-19 11:13:00,39.4,32.5,29.63,SW,225,8.7,14.3,76,0.00,,,0.00,WUHU216HW,2013-01-19 17:13:00,
2013-01-19 11:18:00,39.6,32.7,29.63,WSW,248,9.8,15.4,76,0.00,,,0.00,WUHU216HW,2013-01-19 17:18:00,
2013-01-19 11:23:00,40.0,32.9,29.63,WSW,248,12.1,15.4,76,0.00,,,0.00,WUHU216HW,2013-01-19 17:23:00,
2013-01-19 11:28:00,40.0,32.7,29.62,SW,225,10.1,15.7,75,0.00,,,0.00,WUHU216HW,2013-01-19 17:28:00,
2013-01-19 11:33:00,40.3,32.7,29.61,SW,225,11.0,16.1,74,0.00,,,0.00,WUHU216HW,2013-01-19 17:33:00,
2013-01-19 11:38:00,40.7,32.7,29.60,SW,225,9.8,16.1,73,0.00,,,0.00,WUHU216HW,2013-01-19 17:38:00,
2013-01-19 11:43:00,41.0,33.0,29.60,SW,225,10.5,13.2,73,0.00,,,0.00,WUHU216HW,2013-01-19 17:43:00,
2013-01-19 11:48:00,40.7,32.7,29.60,SW,225,10.5,15.0,73,0.00,,,0.00,WUHU216HW,2013-01-19 17:48:00,
2013-01-19 11:53:00,40.9,32.9,29.60,WSW,248,14.3,17.4,73,0.00,,,0.00,WUHU216HW,2013-01-19 17:53:00,
2013-01-19 11:58:00,41.0,33.0,29.60,SW,225,12.1,17.4,73,0.00,,,0.00,WUHU216HW,2013-01-19 17:58:00,
2013-01-19 12:03:00,41.0,32.7,29.60,SW,225,8.9,15.2,72,0.00,,,0.00,WUHU216HW,2013-01-19 18:03:00,
2013-01-19 12:08:00,41.4,33.4,29.59,WSW,248,12.8,15.2,73,0.00,,,0.00,WUHU216HW,2013-01-19 18:08:00,
2013-01-19 12:13:00,41.8,33.4,29.59,SSW,203,12.8,13.4,72,0.00,,,0.00,WUHU216HW,2013-01-19 18:13:00,
2013-01-19 12:18:00,41.8,33.1,29.59,SSW,203,11.6,16.8,71,0.00,,,0.00,WUHU216HW,2013-01-19 18:18:00,
2013-01-19 12:23:00,41.8,33.1,29.58,SW,225,11.6,16.8,71,0.00,,,0.00,WUHU216HW,2013-01-19 18:23:00,
2013-01-19 12:28:00,41.9,33.3,29.58,SW,225,14.3,14.5,71,0.00,,,0.00,WUHU216HW,2013-01-19 18:28:00,
2013-01-19 12:33:00,42.5,33.9,29.58,SW,225,9.2,16.3,71,0.00,,,0.00,WUHU216HW,2013-01-19 18:33:00,
2013-01-19 12:38:00,42.8,33.8,29.58,WSW,248,12.3,16.3,70,0.00,,,0.00,WUHU216HW,2013-01-19 18:38:00,
2013-01-19 12:43:00,42.8,33.8,29.58,SW,225,10.5,15.7,70,0.00,,,0.00,WUHU216HW,2013-01-19 18:43:00,
2013-01-19 12:48:00,42.8,33.8,29.58,WNW,293,7.8,15.7,70,0.00,,,0.00,WUHU216HW,2013-01-19 18:48:00,
2013-01-19 12:53:00,42.7,33.7,29.58,WSW,248,12.1,17.0,70,0.00,,,0.00,WUHU216HW,2013-01-19 18:53:00,
2013-01-19 12:58:00,42.5,33.5,29.58,WSW,248,15.2,17.0,70,0.00,,,0.00,WUHU216HW,2013-01-19 18:58:00,
2013-01-19 13:03:00,42.5,33.5,29.58,SW,225,13.0,15.7,70,0.00,,,0.00,WUHU216HW,2013-01-19 19:03:00,
2013-01-19 13:08:00,42.5,33.5,29.58,SW,225,12.1,18.3,70,0.00,,,0.00,WUHU216HW,2013-01-19 19:08:00,
2013-01-19 13:13:00,42.5,33.5,29.58,WSW,248,15.0,18.3,70,0.00,,,0.00,WUHU216HW,2013-01-19 19:13:00,
2013-01-19 13:18:00,42.7,33.3,29.58,WSW,248,11.4,20.8,69,0.00,,,0.00,WUHU216HW,2013-01-19 19:18:00,
2013-01-19 13:24:00,42.5,33.1,29.59,WSW,248,10.1,20.8,69,0.00,,,0.00,WUHU216HW,2013-01-19 19:24:00,
2013-01-19 13:29:00,42.8,33.5,29.58,WSW,248,13.6,14.1,69,0.00,,,0.00,WUHU216HW,2013-01-19 19:29:00,
2013-01-19 13:34:00,43.0,33.6,29.57,SW,225,11.2,17.9,69,0.00,,,0.00,WUHU216HW,2013-01-19 19:34:00,
2013-01-19 13:39:00,43.2,33.8,29.57,SW,225,9.6,17.9,69,0.00,,,0.00,WUHU216HW,2013-01-19 19:39:00,
2013-01-19 13:44:00,43.4,33.6,29.57,WSW,248,14.1,15.2,68,0.00,,,0.00,WUHU216HW,2013-01-19 19:44:00,
2013-01-19 13:49:00,43.6,33.8,29.57,SW,225,12.5,15.9,68,0.00,,,0.00,WUHU216HW,2013-01-19 19:49:00,
2013-01-19 13:54:00,43.6,33.8,29.56,SSW,203,11.4,18.1,68,0.00,,,0.00,WUHU216HW,2013-01-19 19:54:00,
2013-01-19 13:59:00,43.7,33.8,29.56,SW,225,9.4,18.1,68,0.00,,,0.00,WUHU216HW,2013-01-19 19:59:00,
2013-01-19 14:05:00,43.6,33.8,29.56,SW,225,11.2,14.1,68,0.00,,,0.00,WUHU216HW,2013-01-19 20:05:00,
2013-01-19 14:10:00,43.6,33.8,29.56,SSW,203,8.9,14.1,68,0.00,,,0.00,WUHU216HW,2013-01-19 20:10:00,
2013-01-19 14:15:00,43.9,34.0,29.55,WSW,248,13.2,14.3,68,0.00,,,0.00,WUHU216HW,2013-01-19 20:15:00,
2013-01-19 14:20:00,43.9,34.0,29.55,WSW,248,15.7,15.7,68,0.00,,,0.00,WUHU216HW,2013-01-19 20:20:00,
2013-01-19 14:25:00,44.1,33.9,29.55,SW,225,15.4,15.7,67,0.00,,,0.00,WUHU216HW,2013-01-19 20:25:00,
2013-01-19 14:30:00,44.1,33.5,29.56,SSW,203,16.3,18.6,66,0.00,,,0.00,WUHU216HW,2013-01-19 20:30:00,
2013-01-19 14:35:00,43.9,33.7,29.55,SW,225,10.5,18.6,67,0.00,,,0.00,WUHU216HW,2013-01-19 20:35:00,
2013-01-19 14:40:00,44.1,33.9,29.56,WSW,248,11.4,16.3,67,0.00,,,0.00,WUHU216HW,2013-01-19 20:40:00,
2013-01-19 14:45:00,43.9,33.7,29.57,SW,225,11.4,13.9,67,0.00,,,0.00,WUHU216HW,2013-01-19 20:45:00,
2013-01-19 14:50:00,43.9,34.0,29.57,West,270,11.4,13.0,68,0.00,,,0.00,WUHU216HW,2013-01-19 20:50:00,
2013-01-19 14:55:00,44.1,33.9,29.57,WSW,248,14.3,15.7,67,0.00,,,0.00,WUHU216HW,2013-01-19 20:55:00,
2013-01-19 15:00:00,44.3,33.6,29.57,WSW,248,13.9,19.2,66,0.00,,,0.00,WUHU216HW,2013-01-19 21:00:00,
2013-01-19 15:05:00,44.3,33.6,29.57,SSW,203,12.8,19.2,66,0.00,,,0.00,WUHU216HW,2013-01-19 21:05:00,
2013-01-19 15:10:00,44.3,33.6,29.57,SW,225,11.0,17.4,66,0.00,,,0.00,WUHU216HW,2013-01-19 21:10:00,
2013-01-19 15:15:00,44.6,33.9,29.57,WSW,248,7.4,18.6,66,0.00,,,0.00,WUHU216HW,2013-01-19 21:15:00,
2013-01-19 15:20:00,44.3,33.6,29.57,SW,225,8.7,18.6,66,0.00,,,0.00,WUHU216HW,2013-01-19 21:20:00,
2013-01-19 15:25:00,44.3,33.6,29.57,SW,225,13.4,17.0,66,0.00,,,0.00,WUHU216HW,2013-01-19 21:25:00,
2013-01-19 15:30:00,44.5,33.8,29.57,SW,225,8.5,15.7,66,0.00,,,0.00,WUHU216HW,2013-01-19 21:30:00,
2013-01-19 15:35:00,44.5,33.4,29.57,SW,225,10.5,13.4,65,0.00,,,0.00,WUHU216HW,2013-01-19 21:35:00,
2013-01-19 15:41:00,44.3,33.6,29.57,SSW,203,9.2,14.3,66,0.00,,,0.00,WUHU216HW,2013-01-19 21:41:00,
2013-01-19 15:46:00,43.9,33.7,29.57,WSW,248,8.5,14.3,67,0.00,,,0.00,WUHU216HW,2013-01-19 21:46:00,
2013-01-19 15:51:00,43.9,33.7,29.58,WSW,248,14.1,17.4,67,0.00,,,0.00,WUHU216HW,2013-01-19 21:51:00,
2013-01-19 15:56:00,43.6,33.3,29.58,SW,225,12.3,17.4,67,0.00,,,0.00,WUHU216HW,2013-01-19 21:56:00,
2013-01-19 16:01:00,43.2,33.4,29.58,SW,225,12.8,16.6,68,0.00,,,0.00,WUHU216HW,2013-01-19 22:01:00,
2013-01-19 16:06:00,43.2,33.4,29.58,SW,225,10.1,15.0,68,0.00,,,0.00,WUHU216HW,2013-01-19 22:06:00,
2013-01-19 16:11:00,43.0,33.2,29.58,WSW,248,8.5,14.5,68,0.00,,,0.00,WUHU216HW,2013-01-19 22:11:00,
2013-01-19 16:16:00,42.8,33.5,29.57,SW,225,8.7,11.4,69,0.00,,,0.00,WUHU216HW,2013-01-19 22:16:00,
2013-01-19 16:21:00,42.8,33.5,29.58,WSW,248,6.3,11.2,69,0.00,,,0.00,WUHU216HW,2013-01-19 22:21:00,
2013-01-19 16:26:00,42.5,33.1,29.57,SW,225,10.3,11.2,69,0.00,,,0.00,WUHU216HW,2013-01-19 22:26:00,
2013-01-19 16:32:00,42.5,33.5,29.58,WSW,248,7.2,11.2,70,0.00,,,0.00,WUHU216HW,2013-01-19 22:32:00,
2013-01-19 16:37:00,41.9,32.9,29.58,WSW,248,8.7,10.3,70,0.00,,,0.00,WUHU216HW,2013-01-19 22:37:00,
2013-01-19 16:42:00,41.8,32.8,29.58,WSW,248,8.5,10.7,70,0.00,,,0.00,WUHU216HW,2013-01-19 22:42:00,
2013-01-19 16:47:00,41.4,32.4,29.59,WSW,248,8.3,10.1,70,0.00,,,0.00,WUHU216HW,2013-01-19 22:47:00,
2013-01-19 16:52:00,41.0,32.4,29.59,WSW,248,7.8,11.2,71,0.00,,,0.00,WUHU216HW,2013-01-19 22:52:00,
2013-01-19 16:57:00,40.7,32.1,29.58,WSW,248,7.8,11.9,71,0.00,,,0.00,WUHU216HW,2013-01-19 22:57:00,
2013-01-19 17:02:00,40.7,32.1,29.58,WSW,248,10.1,12.8,71,0.00,,,0.00,WUHU216HW,2013-01-19 23:02:00,
2013-01-19 17:07:00,41.0,32.0,29.59,WSW,248,8.5,14.3,70,0.00,,,0.00,WUHU216HW,2013-01-19 23:07:00,
2013-01-19 17:12:00,41.6,31.8,29.58,West,270,11.0,18.1,68,0.00,,,0.00,WUHU216HW,2013-01-19 23:12:00,
2013-01-19 17:17:00,41.8,31.6,29.59,West,270,13.2,18.1,67,0.00,,,0.00,WUHU216HW,2013-01-19 23:17:00,
2013-01-19 17:22:00,41.8,31.6,29.58,WSW,248,10.7,16.3,67,0.00,,,0.00,WUHU216HW,2013-01-19 23:22:00,
2013-01-19 17:28:00,42.1,32.0,29.58,SW,225,10.5,19.2,67,0.00,,,0.00,WUHU216HW,2013-01-19 23:28:00,
2013-01-19 17:33:00,41.9,31.4,29.59,SW,225,11.4,19.9,66,0.00,,,0.00,WUHU216HW,2013-01-19 23:33:00,
2013-01-19 17:38:00,42.1,31.6,29.59,WSW,248,13.4,19.9,66,0.00,,,0.00,WUHU216HW,2013-01-19 23:38:00,
2013-01-19 17:43:00,41.8,30.9,29.59,West,270,17.2,20.4,65,0.00,,,0.00,WUHU216HW,2013-01-19 23:43:00,
2013-01-19 17:48:00,41.9,30.3,29.59,NW,315,17.9,20.4,63,0.00,,,0.00,WUHU216HW,2013-01-19 23:48:00,
2013-01-19 17:53:00,41.9,30.3,29.60,WSW,248,13.9,21.5,63,0.00,,,0.00,WUHU216HW,2013-01-19 23:53:00,
2013-01-19 17:58:00,41.6,30.2,29.60,WSW,248,9.6,20.1,64,0.00,,,0.00,WUHU216HW,2013-01-19 23:58:00,
2013-01-19 18:03:00,41.4,30.2,29.60,WSW,248,24.8,24.8,64,0.00,,,0.00,WUHU216HW,2013-01-20 00:03:00,
2013-01-19 18:08:00,41.4,29.7,29.60,West,270,24.4,26.2,63,0.00,,,0.00,WUHU216HW,2013-01-20 00:08:00,
2013-01-19 18:13:00,41.4,29.7,29.60,WSW,248,26.4,26.4,63,0.00,,,0.00,WUHU216HW,2013-01-20 00:13:00,
2013-01-19 18:18:00,41.4,29.7,29.60,West,270,13.4,26.4,63,0.00,,,0.00,WUHU216HW,2013-01-20 00:18:00,
2013-01-19 18:23:00,41.0,29.8,29.60,SW,225,21.3,24.6,64,0.00,,,0.00,WUHU216HW,2013-01-20 00:23:00,
2013-01-19 18:28:00,41.0,29.8,29.61,West,270,17.9,23.9,64,0.00,,,0.00,WUHU216HW,2013-01-20 00:28:00,
2013-01-19 18:33:00,41.0,28.6,29.61,West,270,23.0,25.1,61,0.00,,,0.00,WUHU216HW,2013-01-20 00:33:00,
2013-01-19 18:38:00,40.7,27.9,29.61,West,270,18.3,33.8,60,0.00,,,0.00,WUHU216HW,2013-01-20 00:38:00,
2013-01-19 18:43:00,40.3,27.5,29.61,West,270,22.4,33.8,60,0.00,,,0.00,WUHU216HW,2013-01-20 00:43:00,
2013-01-19 18:48:00,40.0,27.2,29.61,NW,315,10.3,28.9,60,0.00,,,0.00,WUHU216HW,2013-01-20 00:48:00,
2013-01-19 18:53:00,39.8,25.7,29.61,WNW,293,19.9,33.1,57,0.00,,,0.00,WUHU216HW,2013-01-20 00:53:00,
2013-01-19 18:58:00,39.8,24.4,29.61,WNW,293,15.7,33.1,54,0.00,,,0.00,WUHU216HW,2013-01-20 00:58:00,
2013-01-19 19:03:00,39.4,24.0,29.62,West,270,20.4,27.1,54,0.00,,,0.00,WUHU216HW,2013-01-20 01:03:00,
2013-01-19 19:08:00,39.2,23.4,29.61,WNW,293,20.8,27.3,53,0.00,,,0.00,WUHU216HW,2013-01-20 01:08:00,
2013-01-19 19:13:00,39.1,22.0,29.60,SW,225,14.5,29.1,50,0.00,,,0.00,WUHU216HW,2013-01-20 01:13:00,
2013-01-19 19:18:00,38.5,18.9,29.60,SW,225,17.7,30.9,45,0.00,,,0.00,WUHU216HW,2013-01-20 01:18:00,
2013-01-19 19:23:00,38.2,16.5,29.61,WNW,293,18.1,32.4,41,0.00,,,0.00,WUHU216HW,2013-01-20 01:23:00,
2013-01-19 19:28:00,37.8,16.7,29.60,WSW,248,17.4,32.4,42,0.00,,,0.00,WUHU216HW,2013-01-20 01:28:00,
2013-01-19 19:33:00,37.3,16.8,29.60,WSW,248,30.4,30.4,43,0.00,,,0.00,WUHU216HW,2013-01-20 01:33:00,
2013-01-19 19:38:00,36.9,16.9,29.61,West,270,21.0,33.1,44,0.00,,,0.00,WUHU216HW,2013-01-20 01:38:00,
2013-01-19 19:43:00,36.5,17.1,29.61,WSW,248,18.6,33.1,45,0.00,,,0.00,WUHU216HW,2013-01-20 01:43:00,
2013-01-19 19:48:00,36.0,17.6,29.61,WSW,248,13.6,25.5,47,0.00,,,0.00,WUHU216HW,2013-01-20 01:48:00,
2013-01-19 19:54:00,35.6,13.7,29.61,SW,225,18.3,28.9,40,0.00,,,0.00,WUHU216HW,2013-01-20 01:54:00,
2013-01-19 19:59:00,34.9,11.1,29.62,West,270,28.4,33.8,37,0.00,,,0.00,WUHU216HW,2013-01-20 01:59:00,
2013-01-19 20:04:00,34.2,11.2,29.62,NW,315,20.1,35.1,38,0.00,,,0.00,WUHU216HW,2013-01-20 02:04:00,
2013-01-19 20:09:00,33.7,12.4,29.63,WSW,248,20.6,35.3,41,0.00,,,0.00,WUHU216HW,2013-01-20 02:09:00,
2013-01-19 20:14:00,32.9,13.2,29.63,SW,225,29.5,35.3,44,0.00,,,0.00,WUHU216HW,2013-01-20 02:14:00,
2013-01-19 20:19:00,32.0,14.0,29.65,WSW,248,23.5,33.6,47,0.00,,,0.00,WUHU216HW,2013-01-20 02:19:00,
2013-01-19 20:24:00,30.6,13.1,29.65,NW,315,22.6,33.6,48,0.00,,,0.00,WUHU216HW,2013-01-20 02:24:00,
2013-01-19 20:29:00,29.3,12.1,29.67,WNW,293,18.3,32.7,48,0.00,,,0.00,WUHU216HW,2013-01-20 02:29:00,
2013-01-19 20:34:00,28.3,10.1,29.67,NW,315,20.8,32.9,46,0.00,,,0.00,WUHU216HW,2013-01-20 02:34:00,
2013-01-19 20:39:00,27.2,9.0,29.68,West,270,25.3,34.0,46,0.00,,,0.00,WUHU216HW,2013-01-20 02:39:00,
2013-01-19 20:44:00,26.3,9.2,29.68,West,270,15.7,34.0,48,0.00,,,0.00,WUHU216HW,2013-01-20 02:44:00,
2013-01-19 20:49:00,25.6,8.5,29.69,West,270,20.8,26.6,48,0.00,,,0.00,WUHU216HW,2013-01-20 02:49:00,
2013-01-19 20:54:00,25.0,9.0,29.70,WNW,293,19.7,26.6,50,0.00,,,0.00,WUHU216HW,2013-01-20 02:54:00,
2013-01-19 20:59:00,24.3,9.5,29.70,NW,315,12.8,23.9,53,0.00,,,0.00,WUHU216HW,2013-01-20 02:59:00,
2013-01-19 21:04:00,23.8,8.6,29.71,NNW,338,15.2,27.3,52,0.00,,,0.00,WUHU216HW,2013-01-20 03:04:00,
2013-01-19 21:09:00,23.4,9.1,29.71,West,270,11.2,27.3,54,0.00,,,0.00,WUHU216HW,2013-01-20 03:09:00,
2013-01-19 21:14:00,23.0,9.2,29.72,WNW,293,16.3,18.1,55,0.00,,,0.00,WUHU216HW,2013-01-20 03:14:00,
2013-01-19 21:19:00,22.7,8.5,29.72,NW,315,17.9,24.4,54,0.00,,,0.00,WUHU216HW,2013-01-20 03:19:00,
2013-01-19 21:24:00,22.3,8.5,29.73,NW,315,13.0,24.4,55,0.00,,,0.00,WUHU216HW,2013-01-20 03:24:00,
2013-01-19 21:29:00,22.0,8.2,29.73,NNE,23,12.5,24.4,55,0.00,,,0.00,WUHU216HW,2013-01-20 03:29:00,
2013-01-19 21:34:00,21.6,9.0,29.74,WNW,293,8.9,22.8,58,0.00,,,0.00,WUHU216HW,2013-01-20 03:34:00,
2013-01-19 21:40:00,21.4,9.3,29.74,NW,315,13.4,20.8,59,0.00,,,0.00,WUHU216HW,2013-01-20 03:40:00,
2013-01-19 21:45:00,21.2,8.3,29.75,West,270,13.4,26.2,57,0.00,,,0.00,WUHU216HW,2013-01-20 03:45:00,
2013-01-19 21:50:00,20.9,8.7,29.75,NW,315,11.0,26.2,59,0.00,,,0.00,WUHU216HW,2013-01-20 03:50:00,
2013-01-19 21:55:00,20.5,8.4,29.76,WNW,293,10.7,20.6,59,0.00,,,0.00,WUHU216HW,2013-01-20 03:55:00,
2013-01-19 22:00:00,20.3,8.3,29.76,WNW,293,16.3,25.3,59,0.00,,,0.00,WUHU216HW,2013-01-20 04:00:00,
2013-01-19 22:05:00,19.8,7.3,29.77,West,270,22.4,30.2,58,0.00,,,0.00,WUHU216HW,2013-01-20 04:05:00,
2013-01-19 22:10:00,19.4,7.4,29.77,West,270,12.8,30.2,59,0.00,,,0.00,WUHU216HW,2013-01-20 04:10:00,
2013-01-19 22:15:00,19.1,7.4,29.78,WNW,293,17.4,28.2,60,0.00,,,0.00,WUHU216HW,2013-01-20 04:15:00,
2013-01-19 22:20:00,19.1,7.0,29.78,West,270,21.5,22.4,59,0.00,,,0.00,WUHU216HW,2013-01-20 04:20:00,
2013-01-19 22:25:00,18.7,6.3,29.78,WNW,293,20.1,28.9,58,0.00,,,0.00,WUHU216HW,2013-01-20 04:25:00,
2013-01-19 22:30:00,18.4,5.6,29.78,West,270,23.3,28.9,57,0.00,,,0.00,WUHU216HW,2013-01-20 04:30:00,
2013-01-19 22:35:00,18.0,5.7,29.79,NW,315,25.3,26.4,58,0.00,,,0.00,WUHU216HW,2013-01-20 04:35:00,
2013-01-19 22:40:00,17.6,6.1,29.80,NW,315,20.4,25.7,60,0.00,,,0.00,WUHU216HW,2013-01-20 04:40:00,
2013-01-19 22:45:00,17.6,6.1,29.79,WNW,293,18.6,25.1,60,0.00,,,0.00,WUHU216HW,2013-01-20 04:45:00,
2013-01-19 22:50:00,17.6,6.1,29.80,WNW,293,17.2,24.4,60,0.00,,,0.00,WUHU216HW,2013-01-20 04:50:00,
2013-01-19 22:55:00,17.5,5.9,29.80,NW,315,8.7,24.6,60,0.00,,,0.00,WUHU216HW,2013-01-20 04:55:00,
2013-01-19 23:01:00,17.3,5.4,29.81,NW,315,12.1,24.6,59,0.00,,,0.00,WUHU216HW,2013-01-20 05:01:00,
2013-01-19 23:03:00,17.1,5.6,29.81,WNW,293,15.7,24.6,60,0.00,,,0.00,WUHU216HW,2013-01-20 05:03:00,
2013-01-19 23:08:00,16.9,5.1,29.81,West,270,20.4,21.7,59,0.00,,,0.00,WUHU216HW,2013-01-20 05:08:00,
2013-01-19 23:13:00,16.7,5.2,29.81,SSE,158,15.0,21.7,60,0.00,,,0.00,WUHU216HW,2013-01-20 05:13:00,
2013-01-19 23:18:00,16.4,4.1,29.82,West,270,27.7,27.7,58,0.00,,,0.00,WUHU216HW,2013-01-20 05:18:00,
2013-01-19 23:23:00,16.2,4.0,29.82,NNW,338,13.2,27.7,58,0.00,,,0.00,WUHU216HW,2013-01-20 05:23:00,
2013-01-19 23:28:00,16.0,4.2,29.83,West,270,13.9,27.7,59,0.00,,,0.00,WUHU216HW,2013-01-20 05:28:00,
2013-01-19 23:33:00,15.8,3.6,29.83,North,0,16.8,29.5,58,0.00,,,0.00,WUHU216HW,2013-01-20 05:33:00,
2013-01-19 23:38:00,15.5,3.3,29.84,NNW,338,23.5,29.5,58,0.00,,,0.00,WUHU216HW,2013-01-20 05:38:00,
2013-01-19 23:43:00,15.5,5.1,29.84,South,180,6.9,25.3,63,0.00,,,0.00,WUHU216HW,2013-01-20 05:43:00,
2013-01-19 23:48:00,15.3,6.2,29.85,West,270,15.0,23.5,67,0.00,,,0.00,WUHU216HW,2013-01-20 05:48:00,
2013-01-19 23:53:00,15.1,6.4,29.85,WNW,293,10.5,23.0,68,0.00,,,0.00,WUHU216HW,2013-01-20 05:53:00,
2013-01-19 23:58:00,14.8,6.8,29.86,NW,315,21.7,21.7,70,0.00,,,0.00,WUHU216HW,2013-01-20 05:58:00,